This is the latest recevied weather packets stored in our database for station/object DM2KB-13. If no packets are shown the sender has not sent any weather packets the latest 1 day(s).
| Time | Temp. | Humidity | Pressure | Rain* | Wind** | Luminosity | Snow |
|---|---|---|---|---|---|---|---|
| 1777998017 | 11.11° C | 95% | 1007.4 hPa | 0 mm | 0.89 m/s, 8° | 56 W/m² | - |
| 1777997717 | 11.11° C | 95% | 1007.4 hPa | 0 mm | 0.89 m/s, 33° | 69 W/m² | - |
| 1777997417 | 11.11° C | 95% | 1007.4 hPa | 0 mm | 0.89 m/s, 32° | 79 W/m² | - |
| 1777997117 | 11.11° C | 96% | 1007.4 hPa | 0 mm | 1.34 m/s, 29° | 69 W/m² | - |
| 1777996816 | 11.11° C | 96% | 1007.4 hPa | 0 mm | 1.34 m/s, 347° | 74 W/m² | - |
| 1777996516 | 11.11° C | 96% | 1007.5 hPa | 0 mm | 0.89 m/s, 34° | 76 W/m² | - |
| 1777996216 | 11.11° C | 96% | 1007.5 hPa | 0 mm | 0.89 m/s, 30° | 76 W/m² | - |
| 1777995916 | 11.11° C | 96% | 1007.5 hPa | 0 mm | 0.89 m/s, 4° | 81 W/m² | - |
| 1777995615 | 11.11° C | 96% | 1007.5 hPa | 0 mm | 0.89 m/s, 30° | 74 W/m² | - |
| 1777995315 | 11.67° C | 96% | 1007.6 hPa | 0 mm | 0.89 m/s, 353° | 70 W/m² | - |
| 1777995015 | 11.67° C | 96% | 1007.7 hPa | 0 mm | 0.89 m/s, 11° | 74 W/m² | - |
| 1777994714 | 11.67° C | 96% | 1007.7 hPa | 0 mm | 0.89 m/s, 34° | 84 W/m² | - |
| 1777994414 | 11.67° C | 96% | 1007.7 hPa | 0 mm | 0.89 m/s, 15° | 77 W/m² | - |
| 1777994114 | 11.11° C | 96% | 1007.8 hPa | 0 mm | 1.34 m/s, 77° | 76 W/m² | - |
| 1777993814 | 11.67° C | 96% | 1007.8 hPa | 0 mm | 0.89 m/s, 40° | 97 W/m² | - |
| 1777993513 | 11.67° C | 96% | 1007.9 hPa | 0 mm | 1.34 m/s, 11° | 83 W/m² | - |
| 1777993213 | 11.67° C | 96% | 1007.8 hPa | 0 mm | 1.34 m/s, 1° | 84 W/m² | - |
| 1777992913 | 11.67° C | 97% | 1007.8 hPa | 0 mm | 0.89 m/s, 27° | 79 W/m² | - |
| 1777992612 | 11.67° C | 97% | 1007.8 hPa | 0 mm | 0.89 m/s, 24° | 81 W/m² | - |
| 1777992312 | 11.67° C | 97% | 1007.8 hPa | 0 mm | 0.89 m/s, 32° | 93 W/m² | - |
| 1777992012 | 11.67° C | 97% | 1007.8 hPa | 0 mm | 0.45 m/s, 49° | 95 W/m² | - |
| 1777991712 | 11.67° C | 97% | 1007.8 hPa | 0 mm | 0.89 m/s, 31° | 120 W/m² | - |
| 1777991411 | 11.67° C | 97% | 1007.9 hPa | 0 mm | 0.89 m/s, 118° | 114 W/m² | - |
| 1777991111 | 11.67° C | 97% | 1007.9 hPa | 0 mm | 0.89 m/s, 22° | 111 W/m² | - |
| 1777990811 | 11.67° C | 97% | 1007.9 hPa | 0 mm | 0.89 m/s, 13° | 102 W/m² | - |
* Rain latest hour (hover to see other rain measurements)
** Current wind speed in m/s (hover to see current wind gust speed)